Regional & State Weather Roundups


065 
ASUS43 KDTX 182010
RWRMI 
MICHIGAN HOURLY REGIONAL WEATHER ROUNDUP
NATIONAL WEATHER SERVICE DETROIT/PONTIAC MI
ISSUED BY NATIONAL WEATHER SERVICE GRAND RAPIDS MI
300 PM EST SUN NOV 18 2018
NOTE: "FAIR" INDICATES FEW OR NO CLOUDS BELOW 12,000 FEET WITH NO
SIGNIFICANT WEATHER AND/OR OBSTRUCTION TO VISIBILITY.
MIZ047>049-052>055-059>063-066>070-074>076-081>083-182100-
SOUTHEAST LOWER MICHIGAN
  
CITY           SKY/WX    TMP DP  RH WIND       PRES   REMARKS
ADRIAN         CLOUDY    34  30  85 N7        30.17F WCI  28          
ALMA           CLOUDY    37  25  63 SW8       30.15F WCI  30          
ANN ARBOR      CLOUDY    35  31  85 CALM      30.15F                  
BAD AXE        CLOUDY    35  23  60 W8G18     30.13F WCI  29          
DETROIT CITY   CLOUDY    35  32  88 CALM      30.16F                  
DETROIT        CLOUDY    37  30  75 CALM      30.16F                  
FLINT          CLOUDY    37  25  61 W5        30.15F WCI  33          
GROSSE ILE     CLOUDY    36  33  90 N6        30.16F WCI  31          
HILLSDALE      CLOUDY    34  30  86 CALM      30.14F                  
HOWELL         CLOUDY    36  29  78 CALM      30.15S                  
CITY           SKY/WX    TMP DP  RH WIND       PRES   REMARKS
JACKSON        CLOUDY    36  32  85 SW3       30.15F                  
LANSING        CLOUDY    37  28  70 W8        30.16F WCI  31          
MASON          CLOUDY    39  30  69 W5        30.15F                  
MONROE         CLOUDY    35  34  96 N5        30.16F WCI  31          
MT. CLEMENS    CLOUDY    36  34  90 W3        30.14F                  
PONTIAC        CLOUDY    35  27  72 W6        30.13F WCI  30          
PORT HOPE        N/A     36  21  54 W8        30.12F WCI  30          
PORT HURON     CLOUDY    34  28  80 CALM      30.16F                  
TRI CITIES     CLOUDY    35  26  69 SW10      30.15F WCI  27          
YPSILANTI      CLOUDY    37  30  75 CALM      30.16F                  
$$
MIZ043>046-050>051-056>058-064>065-071>073-077>080-182100-
SOUTHWEST LOWER MICHIGAN
  
CITY           SKY/WX    TMP DP  RH WIND       PRES   REMARKS
BATTLE CREEK   CLOUDY    38  30  73 SW7       30.16F WCI  33          
BENTON HARBOR  CLOUDY    37  31  78 VRB5      30.18F WCI  33          
BIG RAPIDS     FAIR      36  22  58 SW10      30.11F WCI  28          
COLDWATER      CLOUDY    37  31  81 CALM      30.16F                  
HOLLAND        PTSUNNY   36  27  69 W12       30.18F WCI  28          
GRAND RAPIDS   PTSUNNY   37  28  70 W9        30.15F WCI  30          
KALAMAZOO      CLOUDY    38  32  79 SW5       30.16F WCI  34          
MARSHALL       CLOUDY    39  33  81 S3        30.15S                  
MOUNT PLEASANT CLOUDY    36  24  63 SW7       30.12F WCI  30          
MUSKEGON       FAIR      37  24  59 W13       30.17F WCI  29          
STURGIS        FAIR      37  30  75 CALM      30.16F                  
$$
MIZ016>042-182100-
NORTHERN LOWER MICHIGAN
  
CITY           SKY/WX    TMP DP  RH WIND       PRES   REMARKS
ALPENA         FAIR      34  18  52 W8G18     30.09F WCI  27          
BEAVER ISLAND  FAIR      31  17  56 SW16G25   30.07F WCI  19          
BELLAIRE       FAIR      33  13  43 W9G17     30.11F WCI  25          
CADILLAC       FAIR      32  14  46 SW10      30.08S WCI  24          
CHARLEVOIX     FAIR      32  19  58 SW17G25   30.12F WCI  21          
GAYLORD        FAIR      29  14  53 W14G24    30.06F WCI  18          
HOUGHTON LAKE  FAIR      32  19  58 SW13      30.09F WCI  22          
MANISTEE       FAIR      32  21  64 SW9       30.14F WCI  24          
OSCODA         PTSUNNY   34  22  61 W13       30.10F WCI  25          
PELLSTON       FAIR      31  17  56 SW15G25   30.07F WCI  20          
TRAVERSE CITY  FAIR      34  17  50 SW13G20   30.10F WCI  25          
LUDINGTON      FAIR      33  20  59 SW9       30.15F WCI  25          
$$
MIZ007>008-015-182100-
EASTERN UPPER MICHIGAN
  
CITY           SKY/WX    TMP DP  RH WIND       PRES   REMARKS
KINROSS        FAIR      31  18  58 W12G17    30.03F WCI  22          
MACKINAC ISLAN CLOUDY    31  15  53 SW16G26   30.05F WCI  20          
NEWBERRY       FAIR      26   8  48 W12       30.03F WCI  15          
S. S. MARIE    CLOUDY    30  11  45 SW7       30.03F WCI  23          
$$
MIZ004>006-011>014-085-182100-
CENTRAL UPPER MICHIGAN
  
CITY           SKY/WX    TMP DP  RH WIND       PRES   REMARKS
MANISTIQUE     FAIR      27  -3  27 W5        30.06F WCI  22          
ESCANABA       FAIR      28   9  44 W10G18    30.08  WCI  19          
MENOMINEE      FAIR      32   5  32 W7G20     30.10F WCI  26          
SAWYER-GWINN   PTSUNNY   19  12  73 W14       30.03F WCI   6          
$$
MIZ001>003-009>011-084-182100-
WESTERN UPPER MICHIGAN
  
CITY           SKY/WX    TMP DP  RH WIND       PRES   REMARKS
IRON MOUNTAIN  FAIR      27  11  51 NW10      30.03F WCI  17          
HOUGHTON       LGT SNOW  18  13  80 SW5       30.00F VSB 1   WCI  11  
COPPER HARBOR    N/A     23  16  74 NW6       30.02F WCI  16          
IRONWOOD       CLOUDY    24  14  65 W12       30.03F WCI  13          
$$
ABBREVIATIONS USED IN REMARKS
   TC - TEMPERATURE IN CELSIUS
  WCI - WIND CHILL INDEX
   HX - HEAT INDEX
  VSB - VISIBILITY